Find Starlink 32425

NORAD ID: 61216 Int'l Des: 2024-171 Owner: SPXS Country: US Constellation: starlink operational
LEOCIRCULAR

当前视图

正在加载3D地球...

About Starlink 32425

Starlink 32425 (NORAD 61216) is a starlink constellation satellite (v2 mini) launched Sep 20, 2024 by SPXS of US. It operates in LEO, CIRCULAR orbit with a mass of 730.00 kg.

即将过境

Passes for default location (London). Set your location on the main map for personalized predictions.

高度历史

Loading altitude history...

两行轨道根数

1 61216U 24171S 26262.36156457 .00003121 00000-0 11232-3 0 9995
2 61216 53.1606 141.9271 0001359 63.2166 296.8975 15.31698138112034
Epoch: Sep 19, 2026 • Age: 51 hours

当前状态

高度 471.5 km
远地点 / 近地点 N/A
速度 7.63 km/s
星下点 3.25°N, 135.96°E
发射日期 Sep 20, 2024
运行时间 1.9 years
类型 internet

技术详情

分类 Payload
质量 730.00 kg
干质量 700.00 kg
长度 0.30 m
跨度 29.00 m
形状 ? Box + pan
制造商 SPXS
平台类型 Starlink V2M
阶段状态 In Orbit
所有者/国家 SPXS/US

Most Searched